Time,TemperatureF,DewpointF,PressureIn,WindDirection,WindDirectionDegrees,WindSpeedMPH,WindSpeedGustMPH,Humidity,HourlyPrecipIn,Conditions,Clouds,dailyrainin,SoftwareType,DateUTC
2013-08-09 00:00:00,77.8,47.3,29.94,NW,315,2.1,2.1,33,-99.99,,,-99.99,tws,2013-08-09 07:00:00,
2013-08-09 00:10:00,77.4,47.7,29.94,NW,315,1.2,1.9,34,-99.99,,,-99.99,tws,2013-08-09 07:10:00,
2013-08-09 00:20:00,77.1,48.0,29.94,NW,315,0.8,2.5,35,-99.99,,,-99.99,tws,2013-08-09 07:20:00,
2013-08-09 00:30:00,76.5,48.0,29.95,NW,315,1.8,2.3,36,-99.99,,,-99.99,tws,2013-08-09 07:30:00,
2013-08-09 00:40:00,76.0,48.0,29.95,WNW,292,2.2,2.7,36,-99.99,,,-99.99,tws,2013-08-09 07:40:00,
2013-08-09 00:50:00,75.6,47.1,29.95,NW,315,1.3,1.7,35,-99.99,,,-99.99,tws,2013-08-09 07:50:00,
2013-08-09 01:00:00,75.3,46.9,29.95,NW,315,0.0,0.0,36,-99.99,,,-99.99,tws,2013-08-09 08:00:00,
2013-08-09 01:10:00,75.1,47.1,29.95,WNW,292,0.0,0.0,36,-99.99,,,-99.99,tws,2013-08-09 08:10:00,
2013-08-09 01:20:00,74.8,46.6,29.95,NNW,337,1.6,2.6,36,-99.99,,,-99.99,tws,2013-08-09 08:20:00,
2013-08-09 01:30:00,74.5,47.2,29.94,NW,315,1.9,2.4,37,-99.99,,,-99.99,tws,2013-08-09 08:30:00,
2013-08-09 01:40:00,74.2,46.9,29.94,NW,315,2.1,2.5,37,-99.99,,,-99.99,tws,2013-08-09 08:40:00,
2013-08-09 01:50:00,73.9,46.7,29.94,NW,315,1.9,2.5,37,-99.99,,,-99.99,tws,2013-08-09 08:50:00,
2013-08-09 02:00:00,73.7,46.3,29.95,WNW,292,1.6,2.2,37,-99.99,,,-99.99,tws,2013-08-09 09:00:00,
2013-08-09 02:10:00,73.5,46.0,29.94,NW,315,1.9,2.3,37,-99.99,,,-99.99,tws,2013-08-09 09:10:00,
2013-08-09 02:20:00,73.3,46.0,29.94,NW,315,2.2,2.8,37,-99.99,,,-99.99,tws,2013-08-09 09:20:00,
2013-08-09 02:30:00,73.0,46.1,29.94,NW,315,3.0,3.5,37,-99.99,,,-99.99,tws,2013-08-09 09:30:00,
2013-08-09 02:40:00,72.8,45.3,29.94,NW,315,3.2,3.8,36,-99.99,,,-99.99,tws,2013-08-09 09:40:00,
2013-08-09 02:50:00,72.6,44.7,29.94,West,270,3.4,3.8,36,-99.99,,,-99.99,tws,2013-08-09 09:50:00,
2013-08-09 03:00:00,72.7,44.2,29.94,NW,315,3.5,4.0,35,-99.99,,,-99.99,tws,2013-08-09 10:00:00,
2013-08-09 03:10:00,72.9,43.9,29.93,NW,315,3.7,4.2,34,-99.99,,,-99.99,tws,2013-08-09 10:10:00,
2013-08-09 03:20:00,73.1,43.7,29.93,WNW,292,3.2,3.9,34,-99.99,,,-99.99,tws,2013-08-09 10:20:00,
2013-08-09 03:30:00,73.1,44.0,29.93,WSW,247,2.3,3.1,34,-99.99,,,-99.99,tws,2013-08-09 10:30:00,
2013-08-09 03:40:00,72.9,44.4,29.94,WNW,292,2.0,2.5,35,-99.99,,,-99.99,tws,2013-08-09 10:40:00,
2013-08-09 03:50:00,72.5,44.2,29.94,WNW,292,2.8,3.7,35,-99.99,,,-99.99,tws,2013-08-09 10:50:00,
2013-08-09 04:00:00,72.3,43.9,29.93,WNW,292,2.5,3.3,35,-99.99,,,-99.99,tws,2013-08-09 11:00:00,
2013-08-09 04:10:00,72.1,44.2,29.92,NW,315,0.8,2.7,36,-99.99,,,-99.99,tws,2013-08-09 11:10:00,
2013-08-09 04:20:00,71.8,44.6,29.92,NW,315,0.6,1.8,37,-99.99,,,-99.99,tws,2013-08-09 11:20:00,
2013-08-09 04:30:00,71.4,44.6,29.93,NNW,337,0.8,1.7,37,-99.99,,,-99.99,tws,2013-08-09 11:30:00,
2013-08-09 04:40:00,70.9,44.8,29.94,West,270,0.9,3.0,38,-99.99,,,-99.99,tws,2013-08-09 11:40:00,
2013-08-09 04:50:00,70.5,44.6,29.94,ENE,67,1.6,2.5,38,-99.99,,,-99.99,tws,2013-08-09 11:50:00,
2013-08-09 05:00:00,70.3,45.3,29.94,East,90,0.5,1.3,40,-99.99,,,-99.99,tws,2013-08-09 12:00:00,
2013-08-09 05:10:00,69.9,45.1,29.94,WSW,247,0.0,0.4,40,-99.99,,,-99.99,tws,2013-08-09 12:10:00,
2013-08-09 05:20:00,69.5,45.3,29.93,WNW,292,1.8,2.3,41,-99.99,,,-99.99,tws,2013-08-09 12:20:00,
2013-08-09 05:30:00,69.3,45.7,29.94,West,270,2.1,2.7,42,-99.99,,,-99.99,tws,2013-08-09 12:30:00,
2013-08-09 05:40:00,69.2,45.6,29.95,NW,315,2.0,2.3,42,-99.99,,,-99.99,tws,2013-08-09 12:40:00,
2013-08-09 05:50:00,69.1,45.8,29.95,NE,45,0.9,2.0,42,-99.99,,,-99.99,tws,2013-08-09 12:50:00,
2013-08-09 06:00:00,68.9,46.1,29.96,NW,315,1.0,2.8,43,-99.99,,,-99.99,tws,2013-08-09 13:00:00,
2013-08-09 06:10:00,68.7,46.7,29.96,NNW,337,3.0,4.3,44,-99.99,,,-99.99,tws,2013-08-09 13:10:00,
2013-08-09 06:20:00,68.5,46.5,29.96,NW,315,4.9,5.6,44,-99.99,,,-99.99,tws,2013-08-09 13:20:00,
2013-08-09 06:30:00,68.4,46.1,29.96,NNW,337,4.2,4.6,44,-99.99,,,-99.99,tws,2013-08-09 13:30:00,
2013-08-09 06:40:00,68.3,46.3,29.96,NW,315,3.4,4.0,44,-99.99,,,-99.99,tws,2013-08-09 13:40:00,
2013-08-09 06:50:00,68.4,46.3,29.96,North,0,2.6,3.9,44,-99.99,,,-99.99,tws,2013-08-09 13:50:00,
2013-08-09 07:00:00,68.7,47.4,29.97,NW,315,1.3,1.9,46,-99.99,,,-99.99,tws,2013-08-09 14:00:00,
2013-08-09 07:10:00,69.2,48.9,29.97,NW,315,2.7,3.5,47,-99.99,,,-99.99,tws,2013-08-09 14:10:00,
2013-08-09 07:20:00,69.8,48.8,29.98,North,0,1.6,2.5,46,-99.99,,,-99.99,tws,2013-08-09 14:20:00,
2013-08-09 07:30:00,70.6,49.1,29.96,East,90,1.3,1.8,46,-99.99,,,-99.99,tws,2013-08-09 14:30:00,
2013-08-09 07:40:00,71.8,48.6,29.96,SE,135,1.2,1.6,43,-99.99,,,-99.99,tws,2013-08-09 14:40:00,
2013-08-09 07:50:00,73.0,48.2,29.96,NE,45,1.3,2.8,40,-99.99,,,-99.99,tws,2013-08-09 14:50:00,
2013-08-09 08:00:00,74.0,48.2,29.96,NE,45,0.9,1.8,39,-99.99,,,-99.99,tws,2013-08-09 15:00:00,
2013-08-09 08:10:00,74.9,48.5,29.97,East,90,1.5,2.6,38,-99.99,,,-99.99,tws,2013-08-09 15:10:00,
2013-08-09 08:20:00,75.8,48.8,29.98,SSE,157,1.4,3.2,38,-99.99,,,-99.99,tws,2013-08-09 15:20:00,
2013-08-09 08:30:00,76.9,48.9,29.98,East,90,1.8,2.5,36,-99.99,,,-99.99,tws,2013-08-09 15:30:00,
2013-08-09 08:40:00,78.0,49.3,29.98,NE,45,2.7,3.5,35,-99.99,,,-99.99,tws,2013-08-09 15:40:00,
2013-08-09 08:50:00,79.6,49.4,29.98,East,90,2.6,3.9,34,-99.99,,,-99.99,tws,2013-08-09 15:50:00,
2013-08-09 09:00:00,81.0,49.6,29.99,East,90,2.3,3.0,32,-99.99,,,-99.99,tws,2013-08-09 16:00:00,
2013-08-09 09:10:00,82.2,50.0,29.98,NE,45,2.3,3.1,32,-99.99,,,-99.99,tws,2013-08-09 16:10:00,
2013-08-09 09:20:00,83.3,50.1,29.97,ENE,67,2.5,4.1,31,-99.99,,,-99.99,tws,2013-08-09 16:20:00,
2013-08-09 09:30:00,84.7,50.0,29.97,SE,135,2.5,4.0,29,-99.99,,,-99.99,tws,2013-08-09 16:30:00,
2013-08-09 09:40:00,86.2,50.6,29.98,SE,135,3.0,4.0,28,-99.99,,,-99.99,tws,2013-08-09 16:40:00,
2013-08-09 09:50:00,87.2,50.1,29.98,East,90,3.7,5.9,27,-99.99,,,-99.99,tws,2013-08-09 16:50:00,
2013-08-09 10:00:00,87.8,49.3,29.98,East,90,3.2,4.4,26,-99.99,,,-99.99,tws,2013-08-09 17:00:00,
2013-08-09 10:10:00,88.3,49.3,29.98,ENE,67,4.2,5.6,25,-99.99,,,-99.99,tws,2013-08-09 17:10:00,
2013-08-09 10:20:00,88.8,49.4,29.96,ENE,67,3.1,4.5,25,-99.99,,,-99.99,tws,2013-08-09 17:20:00,
2013-08-09 10:30:00,89.7,49.5,29.96,East,90,3.4,4.5,24,-99.99,,,-99.99,tws,2013-08-09 17:30:00,
2013-08-09 10:40:00,90.7,49.1,29.96,SE,135,3.2,5.8,23,-99.99,,,-99.99,tws,2013-08-09 17:40:00,
2013-08-09 10:50:00,91.7,48.9,29.97,SE,135,3.3,4.7,22,-99.99,,,-99.99,tws,2013-08-09 17:50:00,
2013-08-09 11:00:00,92.7,49.2,29.97,SE,135,4.4,5.2,22,-99.99,,,-99.99,tws,2013-08-09 18:00:00,
2013-08-09 11:10:00,93.4,48.8,29.97,East,90,5.1,6.9,21,-99.99,,,-99.99,tws,2013-08-09 18:10:00,
2013-08-09 11:20:00,94.2,49.3,29.97,SE,135,4.8,6.5,21,-99.99,,,-99.99,tws,2013-08-09 18:20:00,
2013-08-09 11:30:00,95.0,49.2,29.96,East,90,5.7,8.5,20,-99.99,,,-99.99,tws,2013-08-09 18:30:00,
2013-08-09 11:40:00,95.7,49.8,29.95,East,90,5.5,7.7,20,-99.99,,,-99.99,tws,2013-08-09 18:40:00,
2013-08-09 11:50:00,95.9,51.5,29.96,SE,135,4.9,7.4,21,-99.99,,,-99.99,tws,2013-08-09 18:50:00,
2013-08-09 12:00:00,96.2,51.6,29.96,ESE,112,5.1,8.3,21,-99.99,,,-99.99,tws,2013-08-09 19:00:00,
2013-08-09 12:10:00,96.4,51.6,29.96,NE,45,4.8,8.7,21,-99.99,,,-99.99,tws,2013-08-09 19:10:00,
2013-08-09 12:20:00,96.6,52.2,29.96,SW,225,4.4,8.2,21,-99.99,,,-99.99,tws,2013-08-09 19:20:00,
2013-08-09 12:30:00,97.0,52.3,29.94,North,0,6.5,9.7,21,-99.99,,,-99.99,tws,2013-08-09 19:30:00,
2013-08-09 12:40:00,97.3,51.9,29.95,NE,45,5.7,10.3,21,-99.99,,,-99.99,tws,2013-08-09 19:40:00,
2013-08-09 12:50:00,97.6,52.0,29.96,ESE,112,5.6,7.8,21,-99.99,,,-99.99,tws,2013-08-09 19:50:00,
2013-08-09 13:00:00,98.1,52.7,29.95,East,90,4.4,6.3,21,-99.99,,,-99.99,tws,2013-08-09 20:00:00,
2013-08-09 13:10:00,98.3,51.9,29.93,SE,135,7.9,10.4,20,-99.99,,,-99.99,tws,2013-08-09 20:10:00,
2013-08-09 13:20:00,98.6,52.4,29.93,East,90,5.9,7.8,20,-99.99,,,-99.99,tws,2013-08-09 20:20:00,
2013-08-09 13:30:00,98.7,52.4,29.94,East,90,5.8,8.1,20,-99.99,,,-99.99,tws,2013-08-09 20:30:00,
2013-08-09 13:40:00,99.1,52.7,29.94,North,0,5.2,7.0,20,-99.99,,,-99.99,tws,2013-08-09 20:40:00,
2013-08-09 13:50:00,99.3,52.2,29.93,East,90,4.0,7.2,20,-99.99,,,-99.99,tws,2013-08-09 20:50:00,
2013-08-09 14:00:00,99.3,51.9,29.94,NE,45,6.4,9.2,19,-99.99,,,-99.99,tws,2013-08-09 21:00:00,
2013-08-09 14:10:00,99.6,51.7,29.92,ESE,112,4.6,7.1,19,-99.99,,,-99.99,tws,2013-08-09 21:10:00,
2013-08-09 14:20:00,100.1,51.9,29.92,East,90,8.2,11.2,19,-99.99,,,-99.99,tws,2013-08-09 21:20:00,
2013-08-09 14:30:00,99.9,51.3,29.91,East,90,4.5,7.2,19,-99.99,,,-99.99,tws,2013-08-09 21:30:00,
2013-08-09 14:40:00,99.3,52.2,29.90,ESE,112,4.4,7.8,20,-99.99,,,-99.99,tws,2013-08-09 21:40:00,
2013-08-09 14:50:00,99.6,52.1,29.91,SE,135,7.3,9.5,19,-99.99,,,-99.99,tws,2013-08-09 21:50:00,
2013-08-09 15:00:00,100.0,51.4,29.91,East,90,5.7,7.8,19,-99.99,,,-99.99,tws,2013-08-09 22:00:00,
2013-08-09 15:10:00,99.2,51.3,29.90,South,180,6.4,11.4,19,-99.99,,,-99.99,tws,2013-08-09 22:10:00,
2013-08-09 15:20:00,98.8,51.5,29.89,East,90,5.9,9.4,19,-99.99,,,-99.99,tws,2013-08-09 22:20:00,
2013-08-09 15:30:00,98.6,52.2,29.89,SSE,157,5.0,7.1,20,-99.99,,,-99.99,tws,2013-08-09 22:30:00,
2013-08-09 15:40:00,99.7,53.3,29.89,East,90,6.3,8.1,20,-99.99,,,-99.99,tws,2013-08-09 22:40:00,
2013-08-09 15:50:00,100.2,52.2,29.89,East,90,6.8,9.6,19,-99.99,,,-99.99,tws,2013-08-09 22:50:00,
2013-08-09 16:00:00,100.2,52.1,29.89,SE,135,5.8,8.9,19,-99.99,,,-99.99,tws,2013-08-09 23:00:00,
2013-08-09 16:10:00,99.6,51.9,29.88,South,180,7.9,10.9,19,-99.99,,,-99.99,tws,2013-08-09 23:10:00,
2013-08-09 16:20:00,98.9,51.6,29.88,South,180,6.3,8.9,19,-99.99,,,-99.99,tws,2013-08-09 23:20:00,
2013-08-09 16:30:00,98.3,51.6,29.88,SW,225,4.6,6.5,20,-99.99,,,-99.99,tws,2013-08-09 23:30:00,
2013-08-09 16:40:00,97.7,51.3,29.88,East,90,3.3,7.2,20,-99.99,,,-99.99,tws,2013-08-09 23:40:00,
2013-08-09 16:50:00,97.8,51.8,29.88,East,90,6.4,8.3,20,-99.99,,,-99.99,tws,2013-08-09 23:50:00,
2013-08-09 17:00:00,97.6,51.0,29.88,East,90,4.0,5.8,20,-99.99,,,-99.99,tws,2013-08-10 00:00:00,
2013-08-09 17:10:00,97.1,51.0,29.87,SE,135,4.4,6.2,20,-99.99,,,-99.99,tws,2013-08-10 00:10:00,
2013-08-09 17:20:00,96.7,51.1,29.88,South,180,4.8,6.2,20,-99.99,,,-99.99,tws,2013-08-10 00:20:00,
2013-08-09 17:30:00,96.4,50.8,29.89,SE,135,4.6,6.8,20,-99.99,,,-99.99,tws,2013-08-10 00:30:00,
2013-08-09 17:40:00,96.2,50.5,29.88,East,90,6.0,9.8,20,-99.99,,,-99.99,tws,2013-08-10 00:40:00,
2013-08-09 17:50:00,96.1,50.6,29.87,SE,135,4.9,7.1,20,-99.99,,,-99.99,tws,2013-08-10 00:50:00,
2013-08-09 18:00:00,96.1,50.6,29.87,SE,135,3.8,5.5,20,-99.99,,,-99.99,tws,2013-08-10 01:00:00,
2013-08-09 18:10:00,96.1,50.2,29.87,SE,135,6.4,8.1,20,-99.99,,,-99.99,tws,2013-08-10 01:10:00,
2013-08-09 18:20:00,96.0,50.2,29.88,SW,225,5.6,6.6,20,-99.99,,,-99.99,tws,2013-08-10 01:20:00,
2013-08-09 18:30:00,95.7,49.6,29.87,SE,135,4.2,5.6,20,-99.99,,,-99.99,tws,2013-08-10 01:30:00,
2013-08-09 18:40:00,95.4,49.6,29.88,SE,135,4.9,7.1,20,-99.99,,,-99.99,tws,2013-08-10 01:40:00,
2013-08-09 18:50:00,95.1,49.6,29.87,South,180,3.6,4.9,20,-99.99,,,-99.99,tws,2013-08-10 01:50:00,
2013-08-09 19:00:00,94.9,49.0,29.88,SSW,202,3.8,4.9,20,-99.99,,,-99.99,tws,2013-08-10 02:00:00,
2013-08-09 19:10:00,94.8,48.7,29.89,ESE,112,4.6,5.9,20,-99.99,,,-99.99,tws,2013-08-10 02:10:00,
2013-08-09 19:20:00,94.5,48.7,29.89,SE,135,4.2,6.3,20,-99.99,,,-99.99,tws,2013-08-10 02:20:00,
2013-08-09 19:30:00,94.2,48.8,29.90,South,180,4.5,5.9,20,-99.99,,,-99.99,tws,2013-08-10 02:30:00,
2013-08-09 19:40:00,93.8,48.3,29.90,SSE,157,4.9,6.2,20,-99.99,,,-99.99,tws,2013-08-10 02:40:00,
2013-08-09 19:50:00,93.5,48.5,29.90,South,180,4.3,5.2,21,-99.99,,,-99.99,tws,2013-08-10 02:50:00,
2013-08-09 20:00:00,93.1,48.4,29.91,SE,135,3.5,4.9,21,-99.99,,,-99.99,tws,2013-08-10 03:00:00,
2013-08-09 20:10:00,92.7,48.1,29.91,South,180,3.2,4.1,21,-99.99,,,-99.99,tws,2013-08-10 03:10:00,
2013-08-09 20:20:00,92.3,48.2,29.92,SW,225,1.9,3.3,21,-99.99,,,-99.99,tws,2013-08-10 03:20:00,
2013-08-09 20:30:00,92.0,48.3,29.93,South,180,2.7,3.3,21,-99.99,,,-99.99,tws,2013-08-10 03:30:00,
2013-08-09 20:40:00,91.6,47.7,29.94,South,180,3.8,6.9,21,-99.99,,,-99.99,tws,2013-08-10 03:40:00,
2013-08-09 20:50:00,91.1,46.3,29.95,West,270,9.7,12.6,20,-99.99,,,-99.99,tws,2013-08-10 03:50:00,
2013-08-09 21:00:00,90.6,46.0,29.95,South,180,7.3,9.4,21,-99.99,,,-99.99,tws,2013-08-10 04:00:00,
2013-08-09 21:10:00,90.0,45.8,29.96,South,180,5.4,8.1,21,-99.99,,,-99.99,tws,2013-08-10 04:10:00,
2013-08-09 21:20:00,89.4,46.0,29.98,SE,135,4.0,5.0,21,-99.99,,,-99.99,tws,2013-08-10 04:20:00,
2013-08-09 21:30:00,88.8,46.1,29.98,South,180,3.1,4.2,22,-99.99,,,-99.99,tws,2013-08-10 04:30:00,
2013-08-09 21:40:00,88.3,46.9,29.99,North,0,1.0,2.2,23,-99.99,,,-99.99,tws,2013-08-10 04:40:00,
2013-08-09 21:50:00,87.5,48.0,30.00,NW,315,0.4,1.1,25,-99.99,,,-99.99,tws,2013-08-10 04:50:00,
2013-08-09 22:00:00,86.7,48.6,30.00,SE,135,0.6,2.8,26,-99.99,,,-99.99,tws,2013-08-10 05:00:00,
2013-08-09 22:10:00,85.7,47.8,30.00,SE,135,0.5,1.4,26,-99.99,,,-99.99,tws,2013-08-10 05:10:00,
2013-08-09 22:20:00,85.1,48.1,30.01,SE,135,0.7,1.7,27,-99.99,,,-99.99,tws,2013-08-10 05:20:00,
2013-08-09 22:30:00,84.4,47.9,30.01,South,180,1.0,2.8,27,-99.99,,,-99.99,tws,2013-08-10 05:30:00,
2013-08-09 22:40:00,83.9,47.2,30.00,SE,135,0.1,0.3,27,-99.99,,,-99.99,tws,2013-08-10 05:40:00,
2013-08-09 22:50:00,83.3,47.2,30.01,NNW,337,0.1,0.5,27,-99.99,,,-99.99,tws,2013-08-10 05:50:00,
2013-08-09 23:00:00,82.7,47.0,30.01,North,0,0.0,0.0,28,-99.99,,,-99.99,tws,2013-08-10 06:00:00,
2013-08-09 23:10:00,82.2,47.0,30.01,SE,135,0.7,2.5,28,-99.99,,,-99.99,tws,2013-08-10 06:10:00,
2013-08-09 23:20:00,81.7,45.6,30.01,SW,225,2.1,2.6,27,-99.99,,,-99.99,tws,2013-08-10 06:20:00,
2013-08-09 23:30:00,81.7,46.3,30.01,SSW,202,2.1,2.9,28,-99.99,,,-99.99,tws,2013-08-10 06:30:00,
2013-08-09 23:40:00,81.5,46.4,30.01,SSW,202,1.2,2.6,28,-99.99,,,-99.99,tws,2013-08-10 06:40:00,
2013-08-09 23:50:00,81.1,46.0,30.01,West,270,2.0,2.6,28,-99.99,,,-99.99,tws,2013-08-10 06:50:00,